This is the latest recevied weather packets stored in our database for station/object DB0SWS-13. If no packets are shown the sender has not sent any weather packets the latest 1 day(s).
| Time | Temp. | Humidity | Pressure | Rain* | Wind** | Luminosity | Snow |
|---|---|---|---|---|---|---|---|
| 1788600149 | 19.44° C | 72% | 1027.3 hPa | - | - | - | - |
| 1788599249 | 18.33° C | 74% | 1027.3 hPa | - | - | - | - |
| 1788598349 | 18.33° C | 76% | 1027 hPa | - | - | - | - |
| 1788597449 | 17.78° C | 77% | 1026.8 hPa | - | - | - | - |
| 1788596549 | 18.33° C | 76% | 1026.5 hPa | - | - | - | - |
| 1788595649 | 17.78° C | 78% | 1026.5 hPa | - | - | - | - |
| 1788594749 | 17.22° C | 80% | 1026.5 hPa | - | - | - | - |
| 1788593849 | 16.67° C | 81% | 1026.3 hPa | - | - | - | - |
| 1788592949 | 16.11° C | 81% | 1026.2 hPa | - | - | - | - |
| 1788592048 | 16.11° C | 80% | 1026.1 hPa | - | - | - | - |
| 1788591148 | 16.11° C | 79% | 1026 hPa | - | - | - | - |
| 1788590248 | 15.56° C | 80% | 1026.1 hPa | - | - | - | - |
| 1788589348 | 15° C | 80% | 1025.9 hPa | - | - | - | - |
| 1788588448 | 14.44° C | 80% | 1025.5 hPa | - | - | - | - |
| 1788587548 | 14.44° C | 78% | 1025.3 hPa | - | - | - | - |
| 1788586648 | 14.44° C | 78% | 1025.4 hPa | - | - | - | - |
| 1788585747 | 14.44° C | 77% | 1025.3 hPa | - | - | - | - |
| 1788584851 | 14.44° C | 75% | 1025 hPa | - | - | - | - |
| 1788583949 | 14.44° C | 73% | 1024.8 hPa | - | - | - | - |
| 1788583049 | 14.44° C | 72% | 1024.7 hPa | - | - | - | - |
| 1788582149 | 15° C | 70% | 1024.7 hPa | - | - | - | - |
| 1788581250 | 15° C | 71% | 1024.6 hPa | - | - | - | - |
| 1788580350 | 15.56° C | 72% | 1024.5 hPa | - | - | - | - |
| 1788579449 | 15.56° C | 74% | 1024.3 hPa | - | - | - | - |
| 1788578549 | 15.56° C | 72% | 1024.3 hPa | - | - | - | - |
* Rain since midnight (hover to see other rain measurements)
** Current wind speed in m/s (hover to see current wind gust speed)